Simultaneous Nadir Overpasses (SNOs) Predictions

Prediction of SNOs between GOES-17 and TERRA Satellite Orbit:

Table of predicted SNOs for the next 14.0 days since TLE Epoch: 1/7/2023
Index Date Time (GOES-17) GOES-17 Lat,Lon TERRA Lat,Lon Distance(km) Time Diff (sec)
1 01/07/2023 07:21:05 0.01,-137.33 0.10,-137.02 36.17 80
2 01/09/2023 07:05:18 0.01,-137.32 0.88,-133.20 468.74 80
3 01/09/2023 19:22:58 -0.01,-137.33 0.18,-138.14 92.31 80
4 01/11/2023 19:09:51 -0.01,-137.32 -0.63,-134.32 340.13 80
5 01/12/2023 07:27:39 0.01,-137.31 -0.39,-139.30 226.38 80
6 01/14/2023 07:14:32 0.01,-137.29 0.38,-135.48 205.51 80
7 01/14/2023 19:32:11 -0.01,-137.29 0.66,-140.42 355.92 80
8 01/16/2023 19:19:03 -0.01,-137.26 -0.12,-136.60 75.07 80
9 01/17/2023 07:36:52 0.02,-137.25 -0.88,-141.58 491.90 80
10 01/19/2023 07:21:04 0.02,-137.21 -0.08,-137.76 62.30 80
